Regional Weather Roundup
Issued by NWS

Home | Current Version | Previous Version | Text Only | Print | Product List | Glossary On
Versions: 1 2 3 4 5 6 7 8 9 10 11 12 13 14 15 16 17 18 19 20 21 22 23 24 25 26 27 28 29 30 31 32 33 34 35 36 37 38 39 40 41 42 43 44 45 46 47 48 49 50
319
ASUS43 KMPX 220610
RWRMN
WEATHER ROUNDUP FOR MINNESOTA
NATIONAL WEATHER SERVICE TWIN CITIES/CHANHASSEN MN
1200 AM CST SUN JAN 22 2017


NOTE: "FAIR" INDICATES FEW OR NO CLOUDS BELOW 12,000 FEET WITH NO
SIGNIFICANT WEATHER AND/OR OBSTRUCTIONS TO VISIBILITY. N/A MEANS
CURRENT SKY AND/OR WEATHER CONDITIONS ARE NOT AVAILABLE.

MNZ060>063-068>070-220700-
   Twin Cities Metro

CITY           SKY/WX    TMP DP  RH WIND       PRES   REMARKS
TWIN CITIES    DRZL/FOG  36  35  96 N6        29.55R VSB 1/2
6HR MIN TEMP:  36; 6HR MAX TEMP:  37; 6HR PCP: TRACE;

ST PAUL        FOG       34  34 100 CALM      29.56R VSB 1/2
CRYSTAL        FOG       35  33  92 CALM      29.54R VSB 1/4
BLAINE         FOG       37  37 100 CALM      29.54S VSB 3/4
LAKEVILLE        N/A     34  34 100 CALM      29.54R FOG
EDEN PRAIRIE   FOG       36  34  92 N3        29.53S VSB 1/2
6HR MIN TEMP:  35; 6HR MAX TEMP:  37;

SOUTH ST PAUL  FOG       36  36  99 CALM      29.54S VSB 1/2
LAKE ELMO      FOG       34  34 100 CALM      29.55S VSB 1/2
$$
MNZ001>005-007-008-013>017-022>024-027-028-220700-
   Northwest Minnesota

CITY           SKY/WX    TMP DP  RH WIND       PRES   REMARKS
BEMIDJI        CLOUDY    32  32 100 CALM      29.56S FOG
HALLOCK        DRIZZLE   36  34  93 E3        29.59R
ROSEAU         FOG       34  30  86 CALM      29.59R VSB 1/2
WARROAD        FOG       34  30  86 NE6       29.59S VSB 1/2 WCI  29
THIEF RVR FALL CLOUDY    33  32  96 SE7       29.59R WCI  27
CROOKSTON      CLOUDY    34  34 100 S3        29.60R FOG
FOSSTON        CLOUDY    32  30  93 CALM      29.58R FOG
DETROIT LAKES  FOG       34  34 100 CALM      29.58R VSB 3/4
MOORHEAD       FOG       34  32  93 CALM      29.59S VSB 1/4
PARK RAPIDS    FOG       35  32  88 N3        29.56R VSB 1/2
MAHNOMEN       CLOUDY    33  33  99 S3        29.57R FOG
$$
MNZ006-009>011-018-025>026-220700-
   North Central Minnesota

CITY           SKY/WX    TMP DP  RH WIND       PRES   REMARKS
BAUDETTE       FOG       33  33 100 CALM      29.58R VSB 1/2
FLAG ISLAND    FOG       34  34 100 CALM      29.59S VSB 1/2
INTL FALLS     FOG       34  33  96 NE3       29.57S VSB 1/4
6HR MIN TEMP:  34; 6HR MAX TEMP:  35;

WASKISH        FOG       34  34 100 CALM      29.58R VSB 1/2
BIG FORK       FOG       36  34  93 CALM      29.57R VSB 1
LONGVILLE      FOG       34  34 100 CALM      29.56S VSB 1/2
GRAND RAPIDS   FOG       34  33  96 N3        29.58R VSB 1/4
CRANE LAKE     CLOUDY    32  32 100 CALM      29.59R FOG
ORR            FOG       34  30  86 CALM      29.55R VSB 1/2
COOK           FOG       34  34 100 CALM      29.57R VSB 3/4
WALKER         FOG       33  33 100 CALM      29.57R VSB 3/4
$$
MNZ012-019>021-037-220700-
   Northeast Minnesota

CITY           SKY/WX    TMP DP  RH WIND       PRES   REMARKS
DULUTH         CLOUDY    35  34  96 N6        29.53S WCI  30
6HR MIN TEMP:  34; 6HR MAX TEMP:  35; 6HR PCP: TRACE;

ELY            DRIZZLE   34  34 100 CALM      29.55S
HIBBING        CLOUDY    33  33 100 CALM      29.56R FOG
EVELETH        CLOUDY    35  34  97 CALM      29.56R
DULUTH HARBOR  CLOUDY    34  34 100 N9        29.56S FOG     WCI  26
TWO HARBORS    CLOUDY    37  34  87 NE5       29.52R
SILVER BAY     CLOUDY    36  36 100 NE5       29.53R FOG
GRAND MARAIS     N/A     36  34  92 NE6       29.56S
G MARAIS ARPRT CLOUDY    32  28  86 NE9       29.53S FOG     WCI  24
$$
MNZ029>031-032-039>041-046>048-054>057-064-220700-
   West Central Minnesota

CITY           SKY/WX    TMP DP  RH WIND       PRES   REMARKS
FERGUS FALLS   FOG       34  34 100 CALM      29.62R VSB 3/4
WHEATON        MIX PCPN  39  39 100 CALM      29.60R VSB 3/4
MORRIS         FOG       34  34 100 N5        29.56S VSB 1/4 WCI  30
ALEXANDRIA     FOG       33  33 100 CALM      29.57R VSB 1/2
ELBOW LAKE     SNOW      32  32 100 CALM      29.58R VSB 1/2
WADENA         FOG       34  34 100 CALM      29.56R VSB 1/2
GLENWOOD       MIX PCPN  34  34 100 CALM      29.57R VSB 1
APPLETON       FOG       34  34 100 CALM      29.57R VSB 3/4
BENSON         CLOUDY    36  32  87 CALM      29.58R
ORTONVILLE     FOG       34  32  93 CALM      29.57S VSB 1
MADISON        FOG       36  36 100 NW3       29.57S VSB 1/2
WILLMAR        CLOUDY    34  34 100 CALM      29.57S FOG
$$
MNZ033>034-036-042>043-049>051-058-059-220700-
   Central Minnesota

CITY           SKY/WX    TMP DP  RH WIND       PRES   REMARKS
ST CLOUD       FOG       33  33 100 NW3       29.56R VSB 1/2
6HR MIN TEMP:  33; 6HR MAX TEMP:  35;

SAUK CENTRE    FOG       33  33 100 CALM      29.56S VSB 1/4
PAYNESVILLE    FOG       33  33 100 CALM      29.57R VSB 1/2
AITKIN         FOG       36  32  87 CALM      29.55S VSB 1/2
PINE RIVER     FOG       34  34 100 CALM      29.61R VSB 3/4
BRAINERD       CLOUDY    34  34 100 NE3       29.56S FOG
STAPLES        FOG       34  34 100 CALM      29.56R VSB 3/4
LONG PRAIRIE   SNOW      32  32 100 CALM      29.56S VSB 1/4
LITTLE FALLS   CLOUDY    34  32  93 CALM      29.57R FOG
LITCHFIELD     FOG       36  34  93 NW3       29.56S VSB 1/2
BUFFALO        FOG       34  33  97 NW3       29.56R VSB 1/4
MAPLE LAKE     FOG       35  35 100 NW3       29.56S VSB 1/2
HUTCHINSON     FOG       34  34 100 NW5       29.56S VSB 1/4 WCI  30
$$
MNZ037-044-045-052-053-220700-
   East Central Minnesota

CITY           SKY/WX    TMP DP  RH WIND       PRES   REMARKS
PRINCETON      FOG       36  34  93 CALM      29.56R VSB 1/2
MORA           CLOUDY    34  32  93 CALM      29.57R FOG
CAMBRIDGE      FOG       36  36 100 CALM      29.54R VSB 1/2
RUSH CITY      FOG       34  32  93 N3        29.55R VSB 1
MOOSE LAKE     FOG       34  32  93 CALM      29.54R VSB 3/4
HINCKLEY       FOG       34  34 100 N3        29.55R VSB 1
CLOQUET        CLOUDY    34  34 100 N5        29.54S FOG     WCI  30
MCGREGOR       CLOUDY    34  34 100 CALM      29.57R VSB 1/2
$$
MNZ071>073-080-081-089-090-097-098-220700-
   Southwest Minnesota

CITY           SKY/WX    TMP DP  RH WIND       PRES   REMARKS
MONTEVIDEO     FOG       34  34 100 CALM      29.58S VSB 1/4
GRANITE FALLS  FOG       34  34 100 W5        29.59R VSB 1/4 WCI  30
CANBY          FOG       34  34 100 CALM      29.59R VSB 3/4
MARSHALL       FOG       33  33 100 NW8       29.57R VSB 1/2 WCI  26
REDWOOD FALLS  FOG       34  32  92 NW5       29.56R VSB 1/4 WCI  30
OLIVIA         FOG       34  34 100 CALM      29.56R VSB 1/2
PIPESTONE      CLOUDY    32  32 100 NW7       29.55S FOG     WCI  26
WINDOM         MIX PCPN  34  34 100 W7        29.55R VSB 1/2 WCI  28
WORTHINGTON    CLOUDY    32  31  96 W9        29.56  FOG     WCI  24
JACKSON        CLOUDY    32  32 100 W10       29.55R FOG     WCI  24
TRACY          FOG       34  34 100 NW7       29.57R VSB 1   WCI  28
SLAYTON        CLOUDY    32  32  99 W7        29.56R FOG     WCI  26
$$
MNZ065>067-074>077-082>085-091>093-220700-
   South Central Minnesota

CITY           SKY/WX    TMP DP  RH WIND       PRES   REMARKS
MANKATO        FOG       34  34 100 W5        29.55R VSB 1/4 WCI  30
NEW ULM        FOG       34  34 100 CALM      29.55R VSB 1/2
ST JAMES       FOG       34  34 100 W6        29.56R VSB 3/4 WCI  29
FAIRMONT       CLOUDY    33  32  96 W8        29.55S FOG     WCI  26
GLENCOE        SNOW      35  35 100 NW3       29.55R VSB 1/2
OWATONNA       FOG       34  32  93 W3        29.54S VSB 3/4
WASECA         FOG       32  32 100 SW5       29.55S VSB 1/2 WCI  27
ALBERT LEA     CLOUDY    32  32 100 SW6       29.53S FOG     WCI  26
$$
MNZ078>079-086>088-094>096-220700-
   Southeast Minnesota

CITY           SKY/WX    TMP DP  RH WIND       PRES   REMARKS
ROCHESTER      CLOUDY    34  34 100 W10       29.53S WCI  26
6HR MIN TEMP:  34; 6HR MAX TEMP:  34;

RED WING       FOG       36  34  93 CALM      29.54R VSB 1/2
STANTON        FOG       34  33  95 CALM      29.53S VSB 1/2
DODGE CENTER   FOG       34  34 100 CALM      29.53R VSB 3/4
WINONA         CLOUDY    36  36 100 CALM      29.55R FOG
AUSTIN           N/A     34  34 100 SW3       29.54R FOG
PRESTON        CLOUDY    34  33  97 SW7       29.54S FOG     WCI  28
$$
ABBREVIATIONS USED IN REMARKS
   TC - TEMPERATURES IN CELSIUS
  WCI - WIND CHILL INDEX
   HX - HEAT INDEX
  VSB - VISIBILITY
$$




USA.gov is the U.S. government's official web portal to all federal, state and local government web resources and services.